Weather History for KPUW - April, 2014

Change the Weather History Date:

Wednesday, April 9, 2014

  Actual Average Record
Temperature  
Mean Temperature 45 °F 45 °F  
Max Temperature 55 °F 54 °F 76 °F (1996)
Min Temperature 34 °F 35 °F 24 °F (2011)
Degree Days  
Heating Degree Days 20 20  
Month to date heating degree days 160 190  
Since 1 July heating degree days 5725 5649  
Cooling Degree Days 0 0  
Month to date cooling degree days 0 0  
Year to date cooling degree days 0 0  
Moisture  
Dew Point 34 °F    
Average Humidity 60    
Maximum Humidity 93    
Minimum Humidity 26    
Precipitation  
Precipitation 0.06 in 0.06 in 0.54 in (2007)
Month to date precipitation 0.32 0.56  
Year to date precipitation 7.58 5.95  
Sea Level Pressure  
Sea Level Pressure 30.07 in    
Wind  
Wind Speed 9 mph (WSW)    
Max Wind Speed 20 mph    
Max Gust Speed 25 mph    
Visibility 10 miles    
Events Rain    
T = Trace of Precipitation, MM = Missing Value Source: NWS Daily Summary

Daily Weather History Graph

Daily Weather History Graph

Search for Another Location

Airport or City:

Trip Planner

Search our weather history database for the weather conditions in past years. The results will help you decide how hot, cold, wet, or windy it might be!

Date:

Astronomy

Apr. 09, 2014 Rise Set
Actual Time 6:12 AM PDT 7:28 PM PDT
Civil Twilight 5:40 AM PDT 7:59 PM PDT
Nautical Twilight 5:03 AM PDT 8:37 PM PDT
Astronomical Twilight 4:23 AM PDT 9:18 PM PDT
Moon 2:03 PM PDT (4/9) 3:22 AM PDT (4/9)
Length of Visible Light 14h 19m
Length of Day
13h 16m
Waxing Gibbous, 72% of the Moon is Illuminated
Apr 9
Waxing Gibbous
Apr 15
Full
Apr 22
Last Quarter
Apr 28
New
May 6
First Quarter

Hourly Weather History & Observations

Time (PDT) Temp. Windchill Dew Point Humidity Pressure Visibility Wind Dir Wind Speed Gust Speed Precip Events Conditions
12:53 AM 53.1 °F - 39.9 °F 61% 30.00 in 10.0 mi West 11.5 mph - N/A   Partly Cloudy
1:53 AM 52.0 °F - 39.9 °F 63% 30.01 in 10.0 mi WSW 11.5 mph - N/A   Overcast
2:53 AM 50.0 °F - 43.0 °F 77% 30.00 in 5.0 mi SW 11.5 mph - 0.00 in Rain Light Rain
3:53 AM 48.9 °F - 44.1 °F 83% 30.01 in 8.0 mi West 9.2 mph - 0.01 in Rain Light Rain
4:21 AM 48.0 °F - 45.0 °F 89% 30.02 in 6.0 mi West 10.4 mph - 0.02 in Rain Light Rain
4:40 AM 48.0 °F - 45.0 °F 89% 30.01 in 8.0 mi WSW 10.4 mph - 0.03 in Rain Light Rain
4:51 AM 48.2 °F - 44.6 °F 87% 30.02 in 9.0 mi WSW 12.7 mph - 0.03 in Rain Light Rain
4:53 AM 48.0 °F - 45.0 °F 89% 30.01 in 9.0 mi West 12.7 mph - 0.03 in Rain Light Rain
5:53 AM 46.9 °F - 44.1 °F 90% 30.03 in 10.0 mi West 15.0 mph - 0.02 in Rain Light Rain
6:30 AM 46.9 °F - 43.0 °F 86% 30.05 in 10.0 mi West 12.7 mph 20.7 mph 0.00 in   Overcast
6:53 AM 46.0 °F 40.6 °F 42.1 °F 86% 30.06 in 10.0 mi West 11.5 mph 18.4 mph 0.00 in   Overcast
7:13 AM 46.0 °F 40.2 °F 43.0 °F 89% 30.06 in 10.0 mi West 12.7 mph - N/A   Overcast
7:36 AM 45.0 °F 39.3 °F 39.0 °F 80% 30.07 in 10.0 mi West 11.5 mph - N/A   Scattered Clouds
7:53 AM 45.0 °F 41.2 °F 37.9 °F 76% 30.09 in 10.0 mi West 6.9 mph - N/A   Scattered Clouds
8:53 AM 46.0 °F 42.5 °F 34.0 °F 63% 30.10 in 10.0 mi West 6.9 mph - N/A   Mostly Cloudy
9:53 AM 46.9 °F - 33.1 °F 59% 30.11 in 10.0 mi WSW 8.1 mph - N/A   Overcast
10:53 AM 48.9 °F - 33.1 °F 54% 30.11 in 10.0 mi WSW 12.7 mph 21.9 mph N/A   Clear
11:53 AM 51.1 °F - 30.0 °F 44% 30.13 in 10.0 mi WSW 13.8 mph 21.9 mph N/A   Clear
12:53 PM 53.1 °F - 28.9 °F 40% 30.12 in 10.0 mi West 15.0 mph 23.0 mph N/A   Clear
1:53 PM 53.1 °F - 27.0 °F 37% 30.11 in 10.0 mi WSW 15.0 mph 23.0 mph N/A   Clear
2:53 PM 54.0 °F - 26.1 °F 34% 30.11 in 10.0 mi West 15.0 mph 23.0 mph N/A   Clear
3:53 PM 54.0 °F - 26.1 °F 34% 30.11 in 10.0 mi West 15.0 mph 20.7 mph N/A   Clear
4:53 PM 54.0 °F - 19.0 °F 25% 30.11 in 10.0 mi West 13.8 mph 21.9 mph N/A   Clear
5:53 PM 53.1 °F - 19.9 °F 27% 30.10 in 10.0 mi West 10.4 mph 21.9 mph N/A   Clear
6:53 PM 51.1 °F - 21.0 °F 31% 30.09 in 10.0 mi West 12.7 mph - N/A   Clear
7:53 PM 46.9 °F - 24.1 °F 41% 30.10 in 10.0 mi West 4.6 mph - N/A   Clear
8:53 PM 39.9 °F - 26.1 °F 58% 30.12 in 10.0 mi Calm Calm - N/A   Clear
9:53 PM 35.1 °F - 26.1 °F 70% 30.13 in 10.0 mi Calm Calm - N/A   Clear
10:53 PM 37.9 °F - 26.1 °F 62% 30.12 in 10.0 mi Calm Calm - N/A   Clear
11:53 PM 39.0 °F - 28.0 °F 65% 30.11 in 10.0 mi Calm Calm - N/A   Clear